Location: Bagert
(43.0772°N, 1.0828°E)
Time: 16:45:06
(UTC+00:00)

Daily predictions for brighter satellites

Satellite Brightness Start Highest point End
(mag) Time Altitude Azimuth Time Altitude Azimuth Time Altitude Azimuth
Cosmos 1709 Rocket 4.1 18:41:16 10° N 18:47:22 58° E 18:53:22 10° SSE
ADEOS Rocket 3.2 18:41:31 10° NNE 18:48:06 83° WNW 18:53:59 10° SSW
Cosmos 1602 Rocket 4.3 18:45:18 10° N 18:49:21 33° ENE 18:53:20 10° SE
Cosmos 1470 3.0 18:46:51 10° SSE 18:50:32 44° E 18:54:16 10° NNE
STARLINK-1121 4.0 18:47:42 10° NW 18:51:47 53° NNE 18:55:50 10° ESE
Meteor 2-5 Rocket 4.4 18:46:35 10° NNW 18:52:06 60° W 18:57:31 10° S
Ariane Rocket 3.3 18:50:26 10° SE 18:55:19 50° ENE 19:00:12 10° N
STARLINK-1106 3.9 18:52:40 10° NW 18:56:46 57° NNE 19:00:51 10° ESE
Abrixas rocket 2.6 18:54:22 10° W 18:57:16 52° NNW 19:00:11 10° ENE
Cosmos 1544 Rocket 3.6 18:53:45 10° S 18:58:10 88° W 19:02:37 10° N
Aureole 2 Rocket 3.5 18:57:19 10° N 19:00:22 27° ENE 19:03:20 10° ESE
STARLINK-1112 3.8 18:57:39 10° NW 19:01:47 62° NNE 19:05:49 10° ESE
Cosmos 1943 4.0 18:57:23 10° SSE 19:02:07 28° ESE 19:06:52 10° NE
ATLAS 2AS CENTAUR R/B 4.1 18:56:01 10° NNW 19:02:25 27° NNE 19:08:26 10° E
ISS -3.2 19:00:59 10° NW 19:04:15 46° NNE 19:07:16 12° E
STARLINK-1128 3.7 19:02:38 10° NW 19:06:46 67° NNE 19:10:37 12° ESE
SJ-11-01 4.3 19:03:16 10° SSE 19:07:57 74° ENE 19:12:41 10° N
HJ-1C 3.6 19:05:29 10° S 19:08:50 76° WSW 19:12:13 10° NNW
USA 234 3.9 19:03:21 10° ENE 19:09:02 31° SE 19:14:42 10° S
CSL-04 Rocket 4.5 19:04:28 10° S 19:09:39 53° W 19:14:49 10° NNW
STARLINK-1113 3.7 19:07:36 10° NW 19:11:45 72° NE 19:15:23 13° ESE
SPOT 3 Rocket 4.4 19:07:22 10° SE 19:11:54 31° ENE 19:16:27 10° N
STARLINK-1119 3.6 19:12:34 10° NW 19:16:44 78° NE 19:20:11 15° ESE
SJ-6B 3.3 19:14:15 10° SE 19:18:08 43° ENE 19:22:04 10° N
Cosmos 1758 Rocket 4.3 19:14:57 10° NNE 19:18:51 31° ENE 19:22:13 12° SE
SeaSat 1 4.0 19:14:24 10° NNE 19:18:59 39° NW 19:23:32 10° WSW
STARLINK-1114 3.6 19:17:33 10° NW 19:21:43 85° NE 19:24:58 16° SE
SL-16 R/B 3.4 19:17:49 10° SW 19:23:15 45° WNW 19:28:41 10° NNE
SL-14 R/B 4.5 19:20:15 10° NNW 19:24:08 46° W 19:27:57 10° SSW
STARLINK-1130 (DARKSAT) 3.6 19:22:31 10° NW 19:26:41 89° SSW 19:29:44 18° SE
Cosmos 1818 4.1 19:22:09 10° S 19:27:04 36° ESE 19:32:00 10° NE
CZ-2C R/B 2.8 19:22:44 10° SSE 19:27:42 74° ENE 19:32:30 10° N
Cosmos 1606 Rocket 4.4 19:24:11 10° SSE 19:28:01 30° E 19:31:53 10° NNE
MOS 1 4.2 19:23:07 10° SSE 19:28:45 76° ENE 19:34:25 10° N
Cosmos 1758 3.7 19:24:41 10° SSW 19:28:45 68° W 19:32:51 10° N
BREEZE M DEB (TANK) 4.5 19:17:02 10° SW 19:30:49 52° SSE 19:34:31 14° ENE
STARLINK-1084 3.6 19:27:29 10° NW 19:31:39 82° SW 19:34:31 19° SE
H-2A R/B 4.2 19:24:33 10° W 19:33:17 18° SW 19:36:50 10° S
Cosmos 2228 3.7 19:30:17 10° SSE 19:34:04 31° E 19:37:53 10° NNE
CZ-4 R/B 4.5 19:33:28 10° WSW 19:35:18 13° W 19:37:09 10° WNW
SL-24 R/B 4.2 19:32:16 10° NNE 19:36:18 42° E 19:39:56 10° S
CZ-2C R/B 3.2 19:31:59 10° NNE 19:36:35 32° E 19:41:10 10° SSE
STARLINK-1098 3.7 19:32:30 10° WNW 19:36:38 76° SW 19:39:19 21° SE
Cosmos 2084 Rocket 3.7 19:32:17 10° NW 19:36:46 74° SW 19:40:26 15° SSE
Cosmos 1656 Rocket 4.4 19:31:54 10° N 19:37:06 36° ENE 19:40:14 21° ESE
Meteor 1-21 Rocket 4.1 19:32:58 10° N 19:38:33 77° E 19:44:04 10° SSE
Cosmos 1992 Rocket 3.9 19:33:40 10° NNW 19:38:54 75° ENE 19:43:32 13° SSE
ARGOS 3.1 19:35:17 10° SSE 19:40:42 90° ENE 19:46:07 10° NNW
STARLINK-1123 3.8 19:37:29 10° WNW 19:41:37 69° SW 19:44:06 23° SE
MetOp-A 4.3 19:38:31 14° SE 19:42:54 53° ENE 19:48:06 10° N
SL-4 R/B 2.1 19:40:01 10° SSW 19:43:07 34° SE 19:43:45 31° ESE
COSMOS 2455 4.5 19:41:00 10° N 19:45:20 20° NE 19:48:18 14° ENE
Cosmos 1603 3.6 19:39:52 10° SSW 19:45:29 81° ESE 19:51:08 10° NNE
USA 186 2.5 19:42:33 10° S 19:45:54 57° W 19:49:10 10° NNW
Cosmos 1726 2.0 19:42:40 10° S 19:46:23 70° E 19:50:07 10° NNE
STARLINK-1097 3.9 19:42:28 10° WNW 19:46:34 63° SW 19:48:52 24° SE
Cosmos 1340 Rocket 4.3 19:47:46 20° ENE 19:47:46 20° ENE 19:49:59 10° NE
H-2A R/B 2.5 19:44:21 10° S 19:49:34 63° WSW 19:54:41 10° NNW
STARLINK-1099 4.0 19:47:28 10° WNW 19:51:32 58° SW 19:53:40 26° SSE
Meteor 1-16 Rocket 4.0 19:47:06 10° S 19:52:23 68° E 19:57:51 10° NNE
Resurs 1-3 3.7 19:51:24 25° SE 19:53:42 54° ENE 19:58:00 10° N
Cosmos 1328 4.2 19:50:37 10° N 19:54:27 42° ENE 19:55:28 35° ESE
STARLINK-1104 4.1 19:52:29 10° WNW 19:56:31 52° SW 19:58:27 27° SSE
Cosmos 2184 Rocket 3.9 19:52:37 10° N 19:58:57 80° E 20:04:57 11° S
STARLINK-1144 4.3 19:57:28 10° WNW 20:01:28 48° SW 20:03:14 28° SSE
Meteor 2-10 4.2 19:56:35 10° S 20:01:58 85° W 20:07:35 10° N
Cosmos 1703 3.3 20:02:01 10° N 20:05:57 60° E 20:06:52 45° SE
Cosmos 1953 3.4 20:02:28 10° SSW 20:06:16 46° WNW 20:10:07 10° N
STARLINK-1103 4.4 20:02:28 10° WNW 20:06:25 43° SW 20:08:00 29° S
Cosmos 2251 Rocket 4.4 20:03:27 10° SW 20:08:40 52° WNW 20:13:57 10° NNE
ATLAS 5 CENTAUR R/B 4.5 20:03:43 10° S 20:09:37 19° SE 20:09:52 19° SE
DMSP B5D2-2 3.9 20:05:54 10° NNE 20:11:09 78° ESE 20:16:22 10° S
Resurs 01 Rocket 1.6 20:12:28 44° SE 20:13:38 62° ENE 20:18:00 10° N
Cosmos 2058 Rocket 3.2 20:18:19 51° ESE 20:18:47 54° E 20:23:11 10° NNE
Cosmos 1437 3.5 20:16:22 10° NNW 20:19:17 45° W 20:19:45 41° SW
Cosmos 2154 Rocket 3.9 20:14:27 10° N 20:20:50 76° E 20:24:20 28° SSE
NOSS 3-4 (A) 4.1 20:15:01 10° NNW 20:21:52 56° NE 20:24:57 35° ESE
NOSS 3-4 (C) 4.1 20:15:07 10° NNW 20:21:59 55° NE 20:25:03 35° ESE
Cosmos 2369 Rocket 2.9 20:17:53 10° NW 20:23:22 50° WSW 20:27:18 18° S
Nadezhda 1 Rocket 4.0 20:19:24 10° S 20:25:50 90° NNE 20:32:14 10° N
SL-8 R/B 3.7 20:22:14 10° WNW 20:27:00 73° SSW 20:27:50 58° SSE
Cosmos 1908 3.3 20:27:25 40° SSW 20:28:42 72° W 20:32:34 10° N
Cosmos 1943 Rocket 3.6 20:24:03 10° NW 20:28:57 33° WSW 20:33:48 10° SSW
Meteor 1-11 4.1 20:26:29 10° N 20:32:18 84° E 20:34:23 41° SSE
SL-8 Rocket 4.5 20:26:27 10° N 20:32:19 39° ENE 20:32:55 38° E
Abrixas rocket 3.9 20:30:39 10° WNW 20:32:54 26° NNW 20:32:54 26° NNW
SL-24 R/B - RUBIN 2 4.1 20:31:07 10° SSW 20:36:27 61° ESE 20:42:32 10° NE
Cosmos 1726 Rocket 4.0 20:34:23 19° SSW 20:37:27 60° W 20:41:50 10° N
ISS -1.8 20:38:05 10° WNW 20:40:16 24° WSW 20:40:16 24° WSW
Cosmos 1190 Rocket 3.9 20:40:52 47° S 20:42:23 75° ESE 20:47:42 10° NNE
Cosmos 1943 4.3 20:40:32 10° SW 20:45:55 44° WNW 20:51:22 10° NNE
Spot 2 Rocket 3.4 20:46:23 68° E 20:46:35 69° ENE 20:51:40 10° N
Aureole 1 Rocket 4.3 20:41:12 10° SSW 20:49:12 81° WNW 20:55:37 10° NNE
Cosmos 1140 Rocket 3.3 20:51:23 77° E 20:51:23 77° E 20:56:26 10° NNE
USA 234 3.3 20:45:52 10° NE 20:52:25 78° NW 20:58:56 10° WSW
ATLAS 2AS CENTAUR R/B 2.7 20:46:54 10° NW 20:54:31 87° ENE 20:56:14 56° SE
MetOp-B 4.0 20:57:15 70° S 20:57:52 83° WSW 21:03:16 10° NNW
BREEZE M DEB (TANK) 4.5 21:02:08 36° ENE 21:02:08 36° ENE 21:09:19 10° ENE
Terra 3.5 21:07:37 24° NNE 21:07:37 24° NNE 21:10:03 10° N
Cosmos 921 Rocket 4.1 21:06:55 10° NNW 21:09:39 40° NNW 21:09:39 40° NNW
Cosmos 407 Rocket 4.3 21:09:47 13° SW 21:14:14 48° WNW 21:19:14 10° N
SPOT 1/Viking Rocket 3.8 21:17:02 64° N 21:17:02 64° N 21:21:30 10° NNW
CZ-2C R/B 4.1 21:12:16 10° N 21:16:51 33° WNW 21:21:26 10° SW
ERS-1 Rocket 3.7 21:27:58 48° N 21:27:58 48° N 21:31:35 10° NNW
COSMOS 2455 2.9 21:26:03 10° NNW 21:31:27 72° NNW 21:31:27 72° NNW
Cosmos 2341 Rocket 4.5 21:26:18 10° NNW 21:32:30 55° W 21:33:32 50° SW
Cosmos 1980 Rocket 4.4 21:31:33 10° NNE 21:33:52 13° NE 21:33:52 13° NE
Resurs 01 Rocket 4.3 21:50:02 13° W 21:50:32 13° W 21:52:30 10° WNW
Cosmos 2218 Rocket 4.4 21:47:05 10° NNW 21:52:40 59° WNW 21:52:40 59° WNW
ATLAS 5 CENTAUR R/B 4.4 22:02:16 12° NNE 22:02:16 12° NNE 22:02:47 10° NNE
Terra 4.4 22:46:28 17° NW 22:46:28 17° NW 22:47:46 10° NW
Cosmos 1697 Rocket 4.5 22:46:07 10° NNW 22:48:42 28° NNW 22:48:42 28° NNW
CZ-4C R/B 3.7 22:57:09 10° NNW 23:02:42 45° NNE 23:02:42 45° NNE
Cosmos 1980 Rocket 4.2 23:13:34 10° NNW 23:15:38 23° NNW 23:15:38 23° NNW
Cosmos 2344 4.4 23:28:46 10° NW 23:38:36 80° NE 23:38:51 80° ENE
Cosmos 2082 Rocket 4.4 23:44:34 20° NNE 23:44:34 20° NNE 23:46:18 10° NNE
